ONEWEB-0058, 45161

Orbit data source: Space-Track

ONEWEB-0058, 45161 is a payload satellite owned by One Web (UK) in LEO that was launched on Thu, 06 Feb 2020 UTC via a SOYUZ-2-1B launch vehicle from the Tyuratam Missile And Space Complex (TTMTR). Payload-class satellites include a variety of spacecraft equipped with specific instruments for various scientific and technological missions. These include communications satellites like Starlink; space stations such as the ISS; scientific satellites like the Hubble; Earth observation satellites from companies like Planet Labs, Umbra, and HawkEye 360; GPS; miniature CubeSats for education and research; and military/defense satellites.

Loading next visibility...
Identifier
45161, 2020-008AG
Orbit
LEO
Country
Flag of UKUK
Related business
Manufacturer
One Web
Mission
Operational Commercial Communications
Bus & Motor
ARROW, Unknown motor
Mass
148 kg wet, ~140 kg dry
Launch date (UTC)
2020-02-06 (6 years ago)
Launch vehicle
SOYUZ-2-1B
Launch site
Tyuratam Missile And Space Complex (TTMTR)
Object type
Payload
Rocket body
Debris
Shape & HBR
Trap Box + 2 Pan, 6.7 m
Radar Cross Section
3.464 m², Large (>1 m²)

Expand to show TLE details & history
Last TLE update: 14 hours ago

TLE from 14 hours ago
0 ONEWEB-0058
1 45161U 20008AG  25301.46567927  .00000639  00000-0  17946-2 0  9991
2 45161  87.8769  82.4786 0001806 102.1316 258.0014 13.10373820278070
Epoch: 2025-10-28T11:10Z
TLE epoch observation values (Epoch: 2025-10-28T11:10:34.688Z)
Latitude
-0.00002°
Longitude
-122.21871°
Altitude
1,224.886 km
Speed
7.242 km/s
True Right ascension
05h 29m 54s
True Declination
0° 00' 00"
Sunlit
Object was in full shadow at epoch
Visualization orbit readout
Latitude
Unknown
Longitude
Unknown
Altitude
Unknown
Speed
Unknown
Apparent Right ascension
Unknown
Apparent Declination
Unknown
Sunlit
N/A
Visualization observer readout
Local Sidereal Time
20:59:13
Azimuth
Unknown
Elevation
Unknown
Doppler factor
Unknown
Orbital elements
Apogee altitude
1,220.205 km
Perigee altitude
1,217.461 km
Semi-major axis
7,596.97 km
Eccentricity
0.00018
Inclination
87.8769°
RAAN
82.4786°
Arg. of periapsis
102.1316°
True anomaly
257.98116°
Mean anomaly
258.0014°
Eccentric anomaly
257.99128°
Mean motion
3.2778 °/min
Orbital period
109.83 mins
BSTAR
0.0017946
Loading maneuver chart data...
Computing Atmospheric mass density...
Loading historical data...
Loading historical data...
Loading historical data...
Loading historical data...
Loading historical data...
Loading historical data...
Loading historical data...

Documentation

Showing up to 5 results
|